Regional Weather Roundup
Issued by NWS

Home | Current Version | Previous Version | Text Only | Print | Product List | Glossary Off
Versions: 1 2 3 4 5 6 7 8 9 10 11 12 13 14 15 16 17 18 19 20 21 22 23 24 25 26 27

000
ASUS45 KBOU 260310
RWRCO

WEATHER ROUNDUP FOR COLORADO
NATIONAL WEATHER SERVICE DENVER/BOULDER CO
900 PM MDT SUN SEP 25 2016

NOTE: "FAIR" INDICATES FEW OR NO CLOUDS BELOW 12000 FEET WITH NO
SIGNIFICANT WEATHER AND/OR OBSTRUCTIONS TO VISIBILITY.

COZ001>005-013-030-031-260400-
...NORTHWEST COLORADO...

CITY           SKY/WX    TMP DP  RH WIND       PRES   REMARKS
CRAIG          FAIR      43  36  76 CALM      30.50R
HAYDEN         FAIR      45  30  57 S7        30.51R
MEEKER         FAIR      47  35  63 S5        30.50R
MOUNT WERNER   NOT AVBL
STEAMBOAT SPGS FAIR      46  35  65 CALM      30.52R
WALDEN           N/A     41  27  56 N8        30.58R
$$

COZ006>008-011-260400-
...WEST CENTRAL VALLEYS...

CITY           SKY/WX    TMP DP  RH WIND       PRES   REMARKS
GRAND JUNCTION FAIR      58  41  53 NE6       30.37R
MONTROSE       FAIR      52  39  61 SE6       30.45R
EAGLE          FAIR      54  34  47 CALM      30.49R
RIFLE          FAIR      59  40  49 NW6       30.42R
DELTA          NOT AVBL
NUCLA          FAIR      59  30  33 NE5       30.45R
$$

COZ017>023-064>068-260400-
...SOUTHWEST COLORADO...

CITY           SKY/WX    TMP DP  RH WIND       PRES   REMARKS
DURANGO        FAIR      57  31  37 SW5       30.40R
CORTEZ         FAIR      57  34  41 NW5       30.39R
PAGOSA SPRINGS FAIR      51  32  47 NE5       30.46R
TELLURIDE      FAIR      47  37  69 CALM      30.57R
WOLF CREEK PAS FAIR      37  28  70 MISG      30.71S
$$

COZ009-010-012-014-032>034-037-058>063-260400-
...CENTRAL COLORADO...

CITY           SKY/WX    TMP DP  RH WIND       PRES   REMARKS
ASPEN          FAIR      44  32  62 SW9       30.52R
BUENA VISTA    FAIR      50  29  44 CALM      30.52R
COPPER MTN     FAIR      41  23  48 W5        30.72R
BERTHOUD PASS  FAIR      30  18  59 N12       30.73R WCI  21
COTTONWOOD PAS FAIR      50  27  40 CALM      30.61R
GUNNISON       FAIR      48  32  53 NW3       30.49R
KREMMLING      FAIR      50  25  37 W3        30.53R
LEADVILLE      FAIR      40  20  44 E5G20     30.59R
MONARCH PASS   FAIR      37  28  70 W6        30.80R
SALIDA         FAIR      55  30  38 E9G21     30.56R
SUNLIGHT       FAIR      37  34  87 NE5       30.69R
WILKERSON PASS FAIR      34  27  75 E9        30.70R WCI  26
$$

COZ069>075-260400-
...SAN LUIS VALLEY/SANGRE DE CRISTO MOUNTAINS...

CITY           SKY/WX    TMP DP  RH WIND       PRES   REMARKS
ALAMOSA        FAIR      46  31  55 SE7       30.45R
LA VETA PASS   FAIR      37  30  75 MISG      30.61R
SAGUACHE       NOT AVBL
$$

COZ035-036-038>040-260400-
...NORTHERN COLORADO FRONT RANGE...

CITY           SKY/WX    TMP DP  RH WIND       PRES   REMARKS
DENVER INTL AP FAIR      51  27  39 S10       30.43R
DMNS CITY PARK NOT AVBL
AURORA         CLEAR     51  29  42 SE8       30.45R
FRONT RANGE AP CLEAR     52  28  40 E12       30.45R
ERIE MUNI ARPT FAIR      49  33  52 SW3       30.43R
BOULDER MUN AP FAIR      55  34  44 SW3       30.43R
CENTENNIAL     FAIR      52  29  41 S6        30.45R
BROOMFIELD     CLEAR     55  30  38 W3        30.45R
FORT COLLINS   FAIR      55  36  47 SW3       30.42R
LONGMONT       FAIR      53  37  54 W5        30.44R
$$

COZ041-046-047-076>085-087-088-260400-
...PIKES PEAK/PALMER DIVIDE AND SOUTHERN FOOTHILLS...

CITY           SKY/WX    TMP DP  RH WIND       PRES   REMARKS
COLO. SPRINGS  FAIR      56  30  37 CALM      30.48R
A. F. ACADEMY  FAIR      51  31  47 NE5       30.48R
SCHRIEVER AFB  NOT AVBL
ELLICOTT       NOT AVBL
FALCON         FAIR      46  30  54 NE3       30.51R
FORT CARSON    FAIR      56  30  37 SW7       30.45R
LIMON          FAIR      44  25  47 CALM      30.44R
MONUMENT HILL  FAIR      45  28  53 SE6       30.52R
TRINIDAD       FAIR      54  29  38 S3        30.45R
$$

COZ042>045-048>051-090-091-260400-
...NORTHEAST COLORADO...

CITY           SKY/WX    TMP DP  RH WIND       PRES   REMARKS
GREELEY ARPT   FAIR      54  36  50 E9        30.43R
AKRON          FAIR      52  32  46 E5        30.42R
BURLINGTON     FAIR      53  34  48 NE5       30.41R
WRAY           FAIR      48  34  57 N7        30.39R
STERLING       FAIR      46  34  61 CALM      30.39R
HOLYOKE        FAIR      46  36  66 W3        30.39R
FORT MORGAN    FAIR      48  32  53 NE6       30.43R
$$

COZ086-089-092>099-260400-
...SOUTHEAST COLORADO...

CITY           SKY/WX    TMP DP  RH WIND       PRES   REMARKS
PUEBLO         FAIR      58  30  34 CALM      30.41R
LA JUNTA       FAIR      59  31  34 SE6       30.39R
LAMAR          FAIR      54  33  45 NE3       30.37R
SPRINGFIELD    NOT AVBL
$$




USA.gov is the U.S. government's official web portal to all federal, state and local government web resources and services.